Location: Sperry Observatory
(40.6664°N, 74.3236°W)
Time: 18:45:34
(UTC-05:00)

UOSAT-12 - Visible Passes

Search period start: 13 February 2016 00:00
Search period end: 23 February 2016 00:00
Orbit: 613 x 642 km, 64.6° (Epoch: 12 February)

Date Brightness Start Highest point End Pass type
(mag) Time Alt. Az. Time Alt. Az. Time Alt. Az.
13 Feb 8.0 04:30:44 43° SE 04:31:17 46° ESE 04:35:43 10° NE visible
13 Feb 8.3 06:08:06 11° W 06:11:36 23° NW 06:15:19 10° N visible
14 Feb 6.9 04:51:05 80° WNW 04:51:10 81° NW 04:55:48 10° NNE visible
15 Feb 9.9 03:33:51 16° ENE 03:33:51 16° ENE 03:35:03 10° ENE visible
15 Feb 7.7 05:11:11 38° NW 05:11:13 38° NW 05:15:33 10° NNE visible
16 Feb 9.3 03:53:48 22° NE 03:53:48 22° NE 03:55:34 10° NE visible
16 Feb 8.5 05:31:07 20° NW 05:31:27 20° NW 05:34:56 10° N visible
17 Feb 8.9 04:13:36 25° NNE 04:13:36 25° NNE 04:15:33 10° NNE visible
17 Feb 9.1 05:50:55 11° NW 05:51:55 12° NW 05:53:34 10° NNW visible
18 Feb 8.9 04:33:19 21° N 04:33:19 21° N 04:35:13 10° NNE visible
19 Feb 9.2 04:52:56 15° NNW 04:52:56 15° NNW 04:54:31 10° N visible
20 Feb 10.1 03:35:11 11° NNE 03:35:11 11° NNE 03:35:17 10° NNE visible
20 Feb 9.5 05:12:29 10° NNW 05:12:29 10° NNW 05:12:30 10° NNW visible
21 Feb 9.9 03:54:41 11° NNE 03:54:41 11° NNE 03:54:52 10° NNE visible
